FW7576 Weather Reports


time (UTC)temp
F
wind
direction
speed
knots
gust
knots
rain 1hr
in
rain 24hr
in
rain mn
in
humidity
%
barometer
mb
20260904050043 72 0 0.0 0.9 0.00 0.35 0.00 85 1014.4
20260904044555 72 0 0.0 3.5 0.00 0.35 0.35 85 1014.4
20260904043059 72 122 0.0 1.7 0.00 0.35 0.35 85 1014.9
20260904041545 72 0 0.0 0.9 0.00 0.35 0.35 85 1014.4
20260904040042 71 0 0.0 0.0 0.00 0.35 0.35 85 1014.8
20260904034549 72 122 0.0 0.9 0.00 0.35 0.35 86 1014.6
20260904033047 72 0 0.0 0.9 0.00 0.35 0.35 86 1015.0
20260904031544 72 0 0.0 0.9 0.00 0.35 0.35 86 1015.0
20260904030043 72 0 0.0 0.9 0.00 0.35 0.35 87 1015.0
20260904024550 72 0 0.0 1.7 0.00 0.35 0.35 87 1014.7
20260904023046 72 0 0.0 0.9 0.00 0.35 0.35 87 1014.9
20260904021544 72 124 0.0 1.7 0.00 0.35 0.35 87 1014.8
20260904020044 72 0 0.0 1.7 0.00 0.35 0.35 87 1014.7
20260904014553 72 97 0.0 0.9 0.00 0.35 0.35 87 1014.5
20260904013046 72 101 0.0 0.9 0.00 0.35 0.35 87 1014.5
20260904011550 72 101 0.0 0.9 0.00 0.35 0.35 87 1014.3
20260904010046 73 0 0.0 0.9 0.00 0.35 0.35 86 1014.0
20260904004546 73 0 0.0 0.0 0.00 0.35 0.35 86 1013.8
20260904003046 74 0 0.0 0.9 0.00 0.35 0.35 84 1013.7
20260904001546 74 0 0.0 1.7 0.00 0.35 0.35 83 1013.8
20260904000049 75 71 1.7 4.3 0.00 0.35 0.35 83 1013.7
20260903234544 75 101 0.9 4.3 0.00 0.35 0.35 81 1013.7
20260903233046 75 69 1.7 5.2 0.00 0.35 0.35 80 1013.9
20260903231548 75 133 1.7 6.1 0.00 0.35 0.35 80 1013.6
20260903230049 76 65 1.7 7.8 0.00 0.35 0.35 80 1013.8
20260903224543 76 200 1.7 6.1 0.00 0.35 0.35 81 1013.9
20260903223047 76 161 1.7 5.2 0.00 0.35 0.35 80 1013.6
20260903221544 76 117 1.7 4.3 0.00 0.35 0.35 80 1013.8
20260903220047 76 94 0.9 4.3 0.00 0.35 0.35 80 1013.8
20260903214550 76 105 2.6 5.2 0.00 0.35 0.35 79 1013.8
20260903213046 76 68 3.5 7.8 0.00 0.35 0.35 77 1013.8
20260903211543 76 63 2.6 7.0 0.00 0.35 0.35 78 1013.7
20260903210045 76 73 2.6 4.3 0.00 0.35 0.35 83 1013.8
20260903204550 75 80 1.7 6.1 0.00 0.35 0.35 85 1013.9
20260903203045 76 68 3.5 8.7 0.00 0.35 0.35 83 1014.0
20260903201555 78 0 0.0 0.0 0.00 0.35 0.35 85 1013.9
20260903200043 79 0 0.0 0.9 0.00 0.35 0.35 85 1013.6
20260903194542 78 0 0.0 0.0 0.00 0.35 0.35 86 1013.4
20260903193046 78 0 0.0 0.0 0.00 0.35 0.35 85 1013.7
20260903191551 78 0 0.0 0.9 0.00 0.35 0.35 85 1014.0
20260903190044 77 0 0.0 1.7 0.00 0.35 0.35 85 1014.1
20260903184556 76 0 0.0 1.7 0.00 0.35 0.35 85 1013.8
20260903183045 74 0 0.0 0.9 0.08 0.35 0.35 83 1013.8
20260903181549 73 296 0.9 2.6 0.08 0.35 0.35 84 1014.7
20260903180051 73 34 1.7 3.5 0.16 0.35 0.35 83 1014.4
20260903174544 72 153 0.9 5.2 0.16 0.35 0.35 84 1013.7
20260903173050 72 0 0.0 1.7 0.09 0.27 0.27 84 1013.8
20260903171548 71 127 1.7 3.5 0.13 0.27 0.27 85 1014.3
20260903170045 71 214 0.9 2.6 0.10 0.19 0.19 85 1015.7
20260903164555 70 212 0.9 3.5 0.13 0.19 0.19 86 1016.3
20260903163049 71 199 1.7 2.6 0.13 0.18 0.18 86 1016.9
20260903161551 71 247 3.5 8.7 0.09 0.14 0.14 87 1016.9
20260903160044 70 267 4.3 11.3 0.04 0.09 0.09 87 1016.4
20260903154550 71 269 3.5 9.6 0.01 0.06 0.06 85 1016.0
20260903153043 73 317 3.5 7.8 0.00 0.05 0.05 83 1015.4
20260903151543 73 300 3.5 8.7 0.00 0.05 0.05 79 1015.5
20260903150049 73 304 2.6 7.0 0.00 0.05 0.05 77 1015.3
20260903144545 74 48 4.3 9.6 0.00 0.05 0.05 74 1014.8
20260903143104 74 318 5.2 13.9 0.00 0.05 0.05 71 1014.7
20260903141542 72 300 4.3 19.1 0.00 0.05 0.05 76 1015.4
20260903140044 74 14 8.7 18.2 0.00 0.05 0.05 74 1014.9
20260903134548 73 297 8.7 16.5 0.00 0.05 0.05 81 1015.6
20260903133046 75 23 4.3 13.9 0.01 0.05 0.05 80 1015.1
20260903131602 76 295 5.2 8.7 0.01 0.05 0.05 86 1015.0
20260903130044 76 0 0.0 2.6 0.01 0.05 0.05 86 1013.5
20260903124546 76 231 0.0 1.7 0.01 0.05 0.05 83 1013.1
20260903123048 74 0 0.0 0.0 0.00 0.04 0.04 81 1013.3
20260903121543 74 0 0.0 0.0 0.00 0.04 0.04 81 1013.4
20260903120042 73 0 0.0 0.0 0.00 0.04 0.04 81 1013.3
20260903114548 73 0 0.0 0.0 0.00 0.04 0.04 82 1013.2
20260903113045 73 0 0.0 0.0 0.00 0.04 0.04 82 1013.4
20260903111541 72 0 0.0 0.0 0.00 0.04 0.04 82 1013.5
20260903110046 72 0 0.0 0.0 0.00 0.04 0.04 82 1013.5
20260903104543 72 0 0.0 0.0 0.00 0.04 0.04 83 1013.3
20260903103044 72 0 0.0 0.0 0.00 0.04 0.04 83 1013.4
20260903101543 72 0 0.0 0.0 0.00 0.04 0.04 84 1013.5
20260903100048 72 0 0.0 0.0 0.00 0.04 0.04 84 1013.5
20260903094546 72 0 0.0 0.0 0.00 0.04 0.04 84 1013.6
20260903093045 72 0 0.0 0.0 0.00 0.04 0.04 84 1013.6
20260903091540 73 0 0.0 0.0 0.00 0.04 0.04 84 1013.6
20260903090046 73 0 0.0 0.0 0.00 0.04 0.04 85 1013.4
20260903084543 73 0 0.0 0.0 0.00 0.04 0.04 85 1013.5
20260903083051 73 0 0.0 0.0 0.00 0.04 0.04 85 1013.5
20260903081547 73 0 0.0 0.0 0.00 0.04 0.04 85 1013.4
20260903080051 73 0 0.0 0.0 0.04 0.04 0.04 86 1013.6
20260903074543 74 0 0.0 0.0 0.04 0.04 0.04 86 1013.5
20260903073043 74 0 0.0 0.9 0.04 0.04 0.04 87 1013.4
20260903071543 75 144 1.7 5.2 0.04 0.04 0.04 87 1013.4
20260903070048 75 0 0.0 0.0 0.00 0.00 0.00 87 1013.5
20260903064542 76 0 0.0 0.0 0.00 0.00 0.00 86 1013.6
20260903063042 76 0 0.0 0.9 0.00 0.00 0.00 86 1013.6
20260903061551 76 0 0.0 0.9 0.00 0.00 0.00 86 1013.6
20260903060045 77 0 0.0 0.0 0.00 0.00 0.00 87 1013.6
20260903054544 77 0 0.0 0.0 0.00 0.00 0.00 87 1013.7
20260903053049 77 0 0.0 0.0 0.00 0.00 0.00 86 1013.7
20260903051547 78 0 0.0 0.9 0.00 0.00 0.00 86 1013.9